This is the latest recevied weather packets stored in our database for station/object KVBT. If no packets are shown the sender has not sent any weather packets the latest 1 day(s).
| Time | Temp. | Humidity | Pressure | Rain* | Wind** | Luminosity | Snow |
|---|---|---|---|---|---|---|---|
| 1778109222 | 15.56° C | 51% | 1016.3 hPa | - | - | - | - |
| 1778108622 | 15.56° C | 51% | 1016.3 hPa | - | - | - | - |
| 1778106225 | 15° C | 54% | 1015.9 hPa | - | - | - | - |
| 1778105026 | 15° C | 54% | 1015.9 hPa | - | - | - | - |
| 1778102619 | 15.56° C | 55% | 1016.3 hPa | - | - | - | - |
| 1778097822 | 15° C | 54% | 1017.3 hPa | - | - | - | - |
| 1778096622 | 13.89° C | 58% | 1017.6 hPa | - | - | - | - |
| 1778094223 | 13.89° C | 58% | 1017.6 hPa | - | - | - | - |
| 1778090746 | 13.89° C | 58% | 1018.6 hPa | - | - | - | - |
| 1778090021 | 11.67° C | 62% | 1019 hPa | - | - | - | - |
| 1778089422 | 11.67° C | 62% | 1019 hPa | - | - | - | - |
| 1778088825 | 11.67° C | 62% | 1019 hPa | - | - | - | - |
| 1778087024 | 11.67° C | 62% | 1019 hPa | - | - | - | - |
| 1778085225 | 11.67° C | 66% | 1017.9 hPa | - | - | - | - |
| 1778084624 | 11.67° C | 66% | 1017.9 hPa | - | - | - | - |
| 1778084024 | 11.67° C | 66% | 1017.9 hPa | - | - | - | - |
| 1778083546 | 11.67° C | 66% | 1017.9 hPa | - | - | - | - |
| 1778082222 | 10.56° C | 71% | 1017.6 hPa | - | - | - | - |
| 1778081623 | 10° C | 76% | 1017.6 hPa | - | - | - | - |
| 1778080423 | 10° C | 76% | 1017.6 hPa | - | - | - | - |
| 1778079824 | 10° C | 76% | 1017.6 hPa | - | - | - | - |
| 1778078023 | 8.89° C | 81% | 1017.3 hPa | - | - | - | - |
| 1778077419 | 8.89° C | 81% | 1017.3 hPa | - | - | - | - |
| 1778076820 | 8.89° C | 81% | 1017.3 hPa | - | - | - | - |
| 1778075621 | 8.89° C | 81% | 1017.6 hPa | - | - | - | - |
* Rain since midnight (hover to see other rain measurements)
** Current wind speed in m/s (hover to see current wind gust speed)